New York, NY

7:06 AM EST on January 16, 2018 (GMT -0500)
La Guardia

Weather History for KLGA - January, 2013

Change the Weather History Date:

Wednesday, January 23, 2013

  Actual Average Record
Temperature  
Mean Temperature 16 °F 33 °F  
Max Temperature 20 °F 39 °F 62 °F (1957)
Min Temperature 12 °F 26 °F 3 °F (1976)
Degree Days  
Heating Degree Days 49 32  
Month to date heating degree days 636 732  
Since 1 July heating degree days 2088 2338  
Cooling Degree Days 0 0  
Month to date cooling degree days 0 0  
Year to date cooling degree days 0 0  
Moisture  
Dew Point -3 °F    
Average Humidity 46    
Maximum Humidity 58    
Minimum Humidity 33    
Precipitation  
Precipitation 0.00 in 0.10 in 2.60 in (1998)
Month to date precipitation 1.38 2.38  
Year to date precipitation 1.38 2.38  
Snow  
Snow 0.00 in 0.20 in 27.90 in (2016)
Month to date snowfall 0.1 5.4  
Since 1 July snowfall 2.1 10.9  
Snow Depth 0.00 in    
Sea Level Pressure  
Sea Level Pressure 30.21 in    
Wind  
Wind Speed 14 mph (NW)    
Max Wind Speed 24 mph    
Max Gust Speed 29 mph    
Visibility 10 miles    
Events      
T = Trace of Precipitation, MM = Missing Value Source: NWS Daily Summary

Daily Weather History Graph

Daily Weather History Graph

Search for Another Location

Airport or City:

Trip Planner

Search our weather history database for the weather conditions in past years. The results will help you decide how hot, cold, wet, or windy it might be!

Date:

Astronomy

Jan. 23, 2013 Rise Set
Actual Time 7:12 AM EST 5:02 PM EST
Civil Twilight 6:43 AM EST 5:31 PM EST
Nautical Twilight 6:10 AM EST 6:05 PM EST
Astronomical Twilight 5:37 AM EST 6:37 PM EST
Moon 2:10 PM EST (1/23) 4:22 AM EST (1/23)
Length of Visible Light 10h 48m
Length of Day
9h 49m
Waxing Gibbous, 89% of the Moon is Illuminated
Jan 23
Waxing Gibbous
Jan 26
Full
Feb 3
Last Quarter
Feb 10
New
Feb 17
First Quarter

Hourly Weather History & Observations

Time (EST) Temp. Windchill Dew Point Humidity Pressure Visibility Wind Dir Wind Speed Gust Speed Precip Events Conditions
12:51 AM 14.0 °F -2.0 °F -5.1 °F 43% 30.20 in 10.0 mi NW 16.1 mph 27.6 mph N/A   Clear
1:51 AM 14.0 °F -3.4 °F -5.1 °F 43% 30.21 in 10.0 mi WNW 19.6 mph 26.5 mph N/A   Clear
2:51 AM 14.0 °F -1.4 °F -5.1 °F 43% 30.22 in 10.0 mi West 15.0 mph 25.3 mph N/A   Clear
3:51 AM 14.0 °F -3.4 °F -4.0 °F 45% 30.21 in 10.0 mi WNW 19.6 mph 25.3 mph N/A   Clear
4:51 AM 12.9 °F -1.6 °F -4.0 °F 47% 30.22 in 10.0 mi West 12.7 mph - N/A   Clear
5:51 AM 14.0 °F 1.2 °F -2.0 °F 49% 30.22 in 10.0 mi West 10.4 mph - N/A   Clear
6:51 AM 12.0 °F -5.1 °F -2.9 °F 51% 30.23 in 10.0 mi WNW 17.3 mph 24.2 mph N/A   Partly Cloudy
7:51 AM 12.9 °F -1.6 °F -2.0 °F 51% 30.24 in 10.0 mi WNW 12.7 mph 21.9 mph N/A   Partly Cloudy
8:51 AM 14.0 °F -0.8 °F 1.0 °F 56% 30.25 in 10.0 mi NW 13.8 mph 23.0 mph N/A   Partly Cloudy
9:51 AM 15.1 °F -0.1 °F -2.0 °F 47% 30.26 in 10.0 mi WNW 15.0 mph 21.9 mph N/A   Scattered Clouds
10:51 AM 16.0 °F 2.3 °F -2.9 °F 43% 30.25 in 10.0 mi NW 12.7 mph 25.3 mph N/A   Scattered Clouds
11:51 AM 17.1 °F 1.0 °F -2.9 °F 41% 30.22 in 10.0 mi NW 18.4 mph 23.0 mph N/A   Mostly Cloudy
12:51 PM 17.1 °F 2.5 °F -7.1 °F 34% 30.19 in 10.0 mi WNW 15.0 mph 26.5 mph N/A   Mostly Cloudy
1:51 PM 19.0 °F 3.6 °F -2.0 °F 40% 30.17 in 10.0 mi NW 18.4 mph 25.3 mph N/A   Mostly Cloudy
2:51 PM 19.4 °F 7.2 °F -2.2 °F 39% 30.17 in 10.0 mi NW 11.5 mph 24.2 mph N/A   Mostly Cloudy
3:51 PM 19.4 °F 6.6 °F -2.2 °F 39% 30.17 in 10.0 mi NW 12.7 mph 26.5 mph N/A   Partly Cloudy
4:51 PM 19.0 °F 6.1 °F -2.0 °F 40% 30.18 in 10.0 mi NW 12.7 mph - N/A   Mostly Cloudy
5:51 PM 19.0 °F 4.0 °F -4.0 °F 36% 30.19 in 10.0 mi WNW 17.3 mph 26.5 mph N/A   Mostly Cloudy
6:51 PM 18.0 °F 2.6 °F -2.9 °F 40% 30.21 in 10.0 mi WNW 17.3 mph 21.9 mph N/A   Partly Cloudy
7:51 PM 18.0 °F 4.8 °F -0.9 °F 44% 30.20 in 10.0 mi NW 12.7 mph - N/A   Partly Cloudy
8:51 PM 17.1 °F 4.3 °F -0.0 °F 47% 30.20 in 10.0 mi NW 11.5 mph - N/A   Partly Cloudy
9:51 PM 17.1 °F 5.8 °F -0.9 °F 45% 30.20 in 10.0 mi NW 9.2 mph - N/A   Partly Cloudy
10:51 PM 17.1 °F 7.6 °F -0.9 °F 45% 30.20 in 10.0 mi NW 6.9 mph - N/A   Mostly Cloudy
11:51 PM 17.1 °F 5.8 °F -0.9 °F 45% 30.19 in 10.0 mi NW 9.2 mph - N/A   Mostly Cloudy